(225059) = 2007 HJ3 = 2006 DQ199

Discovered at Catalina on 2007-04-16 by CSS.

Orbit

Orbit type: Main Belt

Note: WebGL enabled browser required.

epoch2024-03-31.0
epoch JD2460400.5
perihelion date2023-07-22.99043
perihelion JD2460148.49043
argument of perihelion (°)15.21909
ascending node (°)181.59564
inclination (°)22.54125
eccentricity0.0344165
perihelion distance (AU)3.0176693
Tisserand w.r.t. Jupiter3.1
ΔV w.r.t. Earth (km/sec)12.9
semimajor axis (AU)3.1252287
mean anomaly (°)44.95709
mean daily motion (°/day)0.17839440
aphelion distance (AU)3.233
period (years)5.52
P-vector [x]-0.95780360
P-vector [y]-0.28704402
P-vector [z]-0.01476484
Q-vector [x]0.28722521
Q-vector [y]-0.95778692
Q-vector [z]-0.01207843
absolute magnitude15.37
phase slope0.15
uncertainty0
referenceMPEC 2024-F74
observations used470
oppositions18
arc length (days)9309
first opposition used1998
last opposition used2024
residual rms (arc-secs)0.78
perturbers coarse indicatorM-v
perturbers precise indicator003Ek
first observation date used1998-09-25.0
last observation date used2024-03-21.0
computer nameMPCLINUX
JD of orbit computation2456937.535513
perihelion JD uncertainty (days)7.3423E-04
argument of perihelion uncertainty (°)1.3685E-04
ascending node uncertainty (°)1.6817E-05
inclination uncertainty (°)1.2452E-05
eccentricity uncertainty 1.0639E-07
perihelion distance uncertainty (AU)3.2743E-07
Minimum Orbit Intersection Distances (in AU)
for orbit epoch: 2460400.5, reference: E2024-F74
Mercury2.59301
Venus2.29724
Earth2.02196
Mars1.37226
Jupiter1.72261
Saturn6.08451
Uranus15.4292
Neptune26.6167

Observations

484 total observations over interval: 1998 09 25.353221 – 2024 03 21.634556
These data are available for download (format description).

Date (UT) J2000 RA J2000 Dec Magn Location Ref
1998 09 25.353221 01 43 34.945 +01 02 54.33 20.63 V 645 – Apache Point-Sloan Digital Sky Survey MPS 209099
1998 09 25.356693 01 43 34.843 +01 02 52.26 21.23   645 – Apache Point-Sloan Digital Sky Survey MPS 209099
2001 03 18.25093 11 55 29.91 -01 31 45.2 18.6 R 699 – Lowell Observatory-LONEOS MPS 209099
2001 03 18.29164 11 55 28.26 -01 31 18.3   699 – Lowell Observatory-LONEOS MPS 209099
2001 03 18.30598 11 55 27.69 -01 31 08.2 18.8   704 – Lincoln Laboratory ETS, New Mexico MPS 213886
2001 03 18.31925 11 55 27.08 -01 30 59.4 19.1   704 – Lincoln Laboratory ETS, New Mexico MPS 213886
2001 03 18.33217 11 55 26.55 -01 30 51.0   699 – Lowell Observatory-LONEOS MPS 209099
2001 03 18.33251 11 55 26.61 -01 30 50.5 19.4   704 – Lincoln Laboratory ETS, New Mexico MPS 213886
2001 03 18.34575 11 55 26.05 -01 30 42.0 19.0   704 – Lincoln Laboratory ETS, New Mexico MPS 213886
2001 03 18.35909 11 55 25.58 -01 30 32.0 19.1   704 – Lincoln Laboratory ETS, New Mexico MPS 213886
2001 03 18.37280 11 55 24.98 -01 30 22.5   699 – Lowell Observatory-LONEOS MPS 209099
2002 06 15.42811 17 34 48.71 +09 14 36.1 20.6   644 – Palomar Mountain/NEAT MPS 209099
2002 06 15.43918 17 34 48.18 +09 14 37.0 20.1   644 – Palomar Mountain/NEAT MPS 209099
2002 06 15.45058 17 34 47.66 +09 14 37.8 20.4   644 – Palomar Mountain/NEAT MPS 209099
2003 08 28.28628 22 55 07.85 +05 05 48.8 19.8   644 – Palomar Mountain/NEAT MPS 209099
2003 08 28.35639 22 55 05.09 +05 05 11.4 19.4   644 – Palomar Mountain/NEAT MPS 209099
2003 08 28.42394 22 55 02.43 +05 04 34.9 20.1   644 – Palomar Mountain/NEAT MPS 209099
2003 09 18.13377 22 41 50.46 +01 38 45.6 20.0 V 691 – Steward Observatory, Kitt Peak-Spacewatch MPS 209099
2003 09 18.16070 22 41 49.49 +01 38 28.6 19.9 V 691 – Steward Observatory, Kitt Peak-Spacewatch MPS 209099
2003 09 18.18776 22 41 48.49 +01 38 11.7 20.1 V 691 – Steward Observatory, Kitt Peak-Spacewatch MPS 209099
2006 02 24.22060 08 42 41.18 -04 14 56.3 20.0 V 703 – Catalina Sky Survey MPS 166370
2006 02 24.22803 08 42 40.89 -04 14 50.7 19.9 V 703 – Catalina Sky Survey MPS 166370
2006 02 24.23546 08 42 40.64 -04 14 45.1 19.5 V 703 – Catalina Sky Survey MPS 166370
2006 02 24.24295 08 42 40.42 -04 14 42.7 20.2 V 703 – Catalina Sky Survey MPS 166370
2006 03 04.25088 08 38 44.19 -02 53 01.1 19.7 V 703 – Catalina Sky Survey MPS 166370
2006 03 04.25958 08 38 44.01 -02 52 55.7 19.7 V 703 – Catalina Sky Survey MPS 166370
2006 03 04.26831 08 38 43.90 -02 52 51.0 19.5 V 703 – Catalina Sky Survey MPS 166370
2006 03 04.27684 08 38 43.51 -02 52 45.0 19.9 V 703 – Catalina Sky Survey MPS 166370
2007 03 25.39692 15 00 01.83 -00 45 39.3 19.7 V G96 – Mt. Lemmon Survey MPS 209099
2007 03 25.40232 15 00 01.76 -00 45 36.0 19.9 V G96 – Mt. Lemmon Survey MPS 209099
2007 03 25.40773 15 00 01.69 -00 45 32.7 19.9 V G96 – Mt. Lemmon Survey MPS 209099
2007 03 25.41321 15 00 01.54 -00 45 29.2 19.3 V G96 – Mt. Lemmon Survey MPS 209099
2007 04 16.35624 14 50 41.53 +03 08 19.2 19.4 V 703 – Catalina Sky Survey MPS 207060
2007 04 16.36065 14 50 41.46 +03 08 22.4 19.3 V 703 – Catalina Sky Survey MPS 207060
2007 04 16.36505 14 50 41.24 +03 08 22.9 19.3 V 703 – Catalina Sky Survey MPS 207060
2007 04 16.36944 14 50 40.99 +03 08 27.3 19.3 V 703 – Catalina Sky Survey MPS 207060
2007 04 18.34408 14 49 28.89 +03 28 48.4 19.2 R 699 – Lowell Observatory-LONEOS MPS 207060
2007 04 18.36600 14 49 28.02 +03 29 03.0   699 – Lowell Observatory-LONEOS MPS 207060
2007 04 18.38793 14 49 27.16 +03 29 14.9   699 – Lowell Observatory-LONEOS MPS 207060
2007 04 18.40987 14 49 26.26 +03 29 29.9   699 – Lowell Observatory-LONEOS MPS 207060
2007 05 11.29156 14 34 00.94 +06 45 58.2 19.9 V 703 – Catalina Sky Survey MPS 209099
2007 05 11.29966 14 34 00.66 +06 46 02.1 20.3 V 703 – Catalina Sky Survey MPS 209099
2007 05 11.30779 14 34 00.33 +06 46 04.8 19.6 V 703 – Catalina Sky Survey MPS 209099
2007 05 11.31589 14 34 00.01 +06 46 08.6 19.6 V 703 – Catalina Sky Survey MPS 209099
2007 05 13.30845 14 32 41.82 +06 58 36.8 19.9 V 703 – Catalina Sky Survey MPS 209099
2007 05 13.31484 14 32 41.49 +06 58 40.1 19.5 V 703 – Catalina Sky Survey MPS 209099
2007 05 13.32124 14 32 41.20 +06 58 41.9 19.1 V 703 – Catalina Sky Survey MPS 209099
2007 05 13.32762 14 32 41.02 +06 58 44.8 19.9 V 703 – Catalina Sky Survey MPS 209099
2009 09 28.33536 01 25 57.90 +00 21 22.9 20.0 V G96 – Mt. Lemmon Survey MPS 296989
2009 09 28.34277 01 25 57.61 +00 21 18.4 20.0 V G96 – Mt. Lemmon Survey MPS 296989
2009 09 28.35031 01 25 57.32 +00 21 13.4 20.0 V G96 – Mt. Lemmon Survey MPS 296989
2009 09 28.35770 01 25 57.07 +00 21 09.0 20.0 V G96 – Mt. Lemmon Survey MPS 296989
2009 10 16.26605 01 14 17.66 -02 37 12.0 19.0 V 703 – Catalina Sky Survey MPS 299447
2009 10 16.27399 01 14 17.34 -02 37 15.3 19.2 V 703 – Catalina Sky Survey MPS 299447
2009 10 16.28189 01 14 17.05 -02 37 20.5 19.6 V 703 – Catalina Sky Survey MPS 299447
2009 10 16.28992 01 14 16.69 -02 37 25.3 19.4 V 703 – Catalina Sky Survey MPS 299447
2009 10 19.23938 01 12 19.18 -03 04 29.4 20.2   704 – Lincoln Laboratory ETS, New Mexico MPS 299447
2009 10 19.25260 01 12 18.64 -03 04 36.8 19.4   704 – Lincoln Laboratory ETS, New Mexico MPS 299447
2009 10 19.27907 01 12 17.60 -03 04 52.9 19.7   704 – Lincoln Laboratory ETS, New Mexico MPS 299447
2009 10 21.32538 01 10 57.34 -03 23 00.0 20.2 V 291 – LPL/Spacewatch II MPS 299447
2009 10 21.32933 01 10 57.19 -03 23 01.9 20.2 V 291 – LPL/Spacewatch II MPS 299447
2009 10 21.33311 01 10 57.04 -03 23 03.8 20.3 V 291 – LPL/Spacewatch II MPS 299447
2012 02 22.41551 11 51 23.43 -05 33 37.4 20.5 V 703 – Catalina Sky Survey MPS 414004
2012 02 22.42437 11 51 23.14 -05 33 33.9 21.4 V 703 – Catalina Sky Survey MPS 414004
2012 02 22.43323 11 51 22.93 -05 33 27.8 20.4 V 703 – Catalina Sky Survey MPS 414004
2012 02 22.44211 11 51 22.75 -05 33 25.4 20.6 V 703 – Catalina Sky Survey MPS 414004
2012 02 28.48989 11 48 11.350 -04 38 21.78 19.9 r F51 – Pan-STARRS 1, Haleakala MPS 415916
2012 02 28.49969 11 48 11.001 -04 38 16.10 19.9 r F51 – Pan-STARRS 1, Haleakala MPS 415916
2012 03 14.41885 11 38 50.67 -02 01 22.8 19.8 V 703 – Catalina Sky Survey MPS 417054
2012 03 14.42510 11 38 50.38 -02 01 19.3 20.0 V 703 – Catalina Sky Survey MPS 417054
2012 03 14.43157 11 38 50.17 -02 01 14.9 19.2 V 703 – Catalina Sky Survey MPS 417054
2012 03 14.43802 11 38 49.92 -02 01 12.3 19.0 V 703 – Catalina Sky Survey MPS 417054
2012 03 15.36644 11 38 13.27 -01 50 47.1 19.6 V G96 – Mt. Lemmon Survey MPS 417054
2012 03 15.37609 11 38 12.87 -01 50 40.5 19.4 V G96 – Mt. Lemmon Survey MPS 417054
2012 03 15.38583 11 38 12.48 -01 50 34.0 19.5 V G96 – Mt. Lemmon Survey MPS 417054
2012 03 15.39560 11 38 12.04 -01 50 27.4 19.5 V G96 – Mt. Lemmon Survey MPS 417054
2012 03 16.34508 11 37 34.59 -01 39 46.9 19.0   704 – Lincoln Laboratory ETS, New Mexico MPS 418271
2012 03 16.35608 11 37 34.17 -01 39 39.9 19.1   704 – Lincoln Laboratory ETS, New Mexico MPS 418271
2012 03 16.36721 11 37 33.73 -01 39 31.9 19.4   704 – Lincoln Laboratory ETS, New Mexico MPS 418271
2012 03 16.37846 11 37 33.16 -01 39 23.4 19.0   704 – Lincoln Laboratory ETS, New Mexico MPS 418271
2012 03 20.37206 11 34 56.389 -00 54 17.16 20.2 w F51 – Pan-STARRS 1, Haleakala MPS 418271
2012 03 20.38670 11 34 55.762 -00 54 07.00 20.3 w F51 – Pan-STARRS 1, Haleakala MPS 418271
2012 03 20.40132 11 34 55.205 -00 53 57.33 20.2 w F51 – Pan-STARRS 1, Haleakala MPS 418271
2012 03 20.41593 11 34 54.612 -00 53 47.44 20.1 w F51 – Pan-STARRS 1, Haleakala MPS 418271
2012 03 24.33588 11 32 24.30 -00 09 31.5 19.4   704 – Lincoln Laboratory ETS, New Mexico MPS 420050
2012 03 24.34666 11 32 23.86 -00 09 23.9 19.6   704 – Lincoln Laboratory ETS, New Mexico MPS 420050
2012 03 24.35749 11 32 23.52 -00 09 16.9 19.5   704 – Lincoln Laboratory ETS, New Mexico MPS 420050
2012 03 24.36818 11 32 23.08 -00 09 10.5 20.1   704 – Lincoln Laboratory ETS, New Mexico MPS 420050
2012 03 27.20142 11 30 38.55 +00 22 30.2 19.2 V 703 – Catalina Sky Survey MPS 420050
2012 03 27.20649 11 30 38.37 +00 22 34.6 19.6 V 703 – Catalina Sky Survey MPS 420050
2012 03 27.21153 11 30 38.19 +00 22 36.6 19.0 V 703 – Catalina Sky Survey MPS 420050
